Вернуться в каталог

STARLINK-31770

АктивенСвязьVLEO
NORAD 59601·PAYLOAD·🇺🇸 United States

Запущен Apr 28, 2024 с Cape Canaveral Space Force Station

Loading…

Ближайшие Пролёты (ближайшие 24 часа)

TLE

СвежийSource: CelesTrak SupGP

Эпоха: Sep 15, 2026, 03:07 UTC

1 59601C 24080A   26258.13034722 -.00026590  00000+0 -96288-3 0  2587
2 59601  43.0044  48.3339 0001737 270.0075  24.6022 15.27598461    12

Отслеживайте STARLINK-31770 в реальном времени с AllMySat

Download on the App Store